Meteo Giornale » Osservazioni meteo Svizzera » Sion

ore: 11:20 - Osservazioni Meteo Sion
Lat. 46° 13' N Lon. 7° 20' E Alt. 482 metri s.l.m.

molto_nuvoloso Europe/Zurich

18 °C

Molto Nuvoloso

Temp. 24 Ore

14 °C

21 °C

Nord

0 Km/h

Dew point 10 °C

Umidità 59 %

Visibilità  10 Km

Il sole sorge alle ore 05:43

Il sole tramonta alle ore 21:11

Data e Ora Cielo e Fenomeni T °C DP °C Um. % Pres. hPa Vis. km Vento km/h
Oggi h: 11:20 molto_nuvoloso Molto Nuvoloso 18 10 59 1011 10 N 0
Oggi h: 10:50 molto_nuvoloso Molto Nuvoloso 17 10 63 1012 10 N 3.7
Oggi h: 10:20 molto_nuvoloso Molto Nuvoloso 17 10 63 1012 10 N 5.5
Oggi h: 09:50 molto_nuvoloso Molto Nuvoloso 17 10 63 1012 10 N 1.8
Oggi h: 09:20 molto_nuvoloso Molto Nuvoloso 17 10 63 1012 10 N 0
Oggi h: 08:50 molto_nuvoloso Molto Nuvoloso 16 10 67 1012 10 N 0
Oggi h: 08:20 molto_nuvoloso Molto Nuvoloso 15 9 67 1012 10 N 1.8
Oggi h: 07:50 molto_nuvoloso Molto Nuvoloso 15 10 72 1012 10 N 0
Oggi h: 07:20 molto_nuvoloso Molto Nuvoloso 15 9 67 1012 10 N 1.8
Oggi h: 06:50 molto_nuvoloso Molto Nuvoloso 14 11 82 1012 10 N 1.8
Oggi h: 06:20 molto_nuvoloso Molto Nuvoloso 14 10 76 1012 10 N 1.8
Oggi h: 05:50 nuvoloso Nuvoloso 14 10 76 1013 10 N 1.8
Oggi h: 05:20 nuvoloso Nuvoloso 14 10 76 1013 10 N 0
Oggi h: 04:50 coperto Coperto 15 10 72 1013 10 N 0
Oggi h: 04:20 molto_nuvoloso Molto Nuvoloso 15 10 72 1013 10 N 0
Oggi h: 03:50 molto_nuvoloso Molto Nuvoloso 15 10 72 1013 10 N 1.8
Oggi h: 03:20 molto_nuvoloso Molto Nuvoloso 15 10 72 1014 10 N 1.8
Oggi h: 02:50 molto_nuvoloso Molto Nuvoloso 14 10 76 1014 10 N 3.7
Oggi h: 02:20 molto_nuvoloso Molto Nuvoloso 15 9 67 1014 10 N 1.8
Oggi h: 01:50 molto_nuvoloso Molto Nuvoloso 15 9 67 1014 10 N 3.7
Oggi h: 01:20 coperto Coperto 15 9 67 1014 10 N 1.8
Oggi h: 00:50 coperto Coperto 15 9 67 1014 10 N 1.8
Oggi h: 00:20 molto_nuvoloso Molto Nuvoloso 15 9 67 1014 10 N 1.8
Ieri h: 23:50 nuvoloso Nuvoloso 15 10 72 1014 10 N 5.5
Ieri h: 23:20 poco_nuvoloso Poco Nuvoloso 16 9 63 1015 10 N 3.7
Ieri h: 22:50 nuvoloso Nuvoloso 16 9 63 1014 10 N 1.8
Ieri h: 22:20 molto_nuvoloso Molto Nuvoloso 17 9 59 1014 10 N 1.8
Ieri h: 21:50 sereno Sereno 17 9 59 1014 10 N 1.8
Ieri h: 21:20 nuvoloso Nuvoloso 18 9 55 1014 10 N 0
Ieri h: 20:50 nuvoloso Nuvoloso 18 9 55 1014 10 O/SO 11.1
Ieri h: 20:20 nuvoloso Nuvoloso 18 9 55 1014 10 O/SO 18.5
Ieri h: 19:50 nuvoloso Nuvoloso 19 10 55 1014 10 O/SO 18.5
Ieri h: 19:20 nuvoloso Nuvoloso 20 10 52 1014 10 O/SO 20.3
Ieri h: 18:50 molto_nuvoloso Molto Nuvoloso 20 10 52 1014 10 O/SO 22.2
Ieri h: 18:20 molto_nuvoloso Molto Nuvoloso 20 9 49 1014 10 O/SO 20.3
Ieri h: 17:50 molto_nuvoloso Molto Nuvoloso 20 10 52 1014 10 O/SO 24
Ieri h: 17:20 molto_nuvoloso Molto Nuvoloso 20 10 52 1014 10 O/SO 18.5
Ieri h: 16:50 molto_nuvoloso Molto Nuvoloso 21 9 46 1014 10 O/SO 18.5
Ieri h: 16:20 molto_nuvoloso Molto Nuvoloso 21 10 49 1014 10 O/SO 13
Ieri h: 15:50 molto_nuvoloso Molto Nuvoloso 20 9 49 1014 10 O/SO 13
Ieri h: 15:20 molto_nuvoloso Molto Nuvoloso 20 9 49 1015 10 O/SO 14.8
Ieri h: 14:50 molto_nuvoloso Molto Nuvoloso 20 8 45 1015 10 O/SO 13
Ieri h: 14:20 molto_nuvoloso Molto Nuvoloso 20 8 45 1015 10 SO 11.1
Ieri h: 13:50 molto_nuvoloso Molto Nuvoloso 19 9 52 1016 10 N 5.5
Ieri h: 13:20 molto_nuvoloso Molto Nuvoloso 18 8 51 1016 10 O/SO 9.3
Ieri h: 12:50 molto_nuvoloso Molto Nuvoloso 18 9 55 1016 10 SO 9.3
Ieri h: 12:20 molto_nuvoloso Molto Nuvoloso 17 8 55 1016 10 N 5.5
Ieri h: 11:50 molto_nuvoloso Molto Nuvoloso 17 8 55 1017 10 N 5.5